Location: Newark
(16.3678°N, 77.8722°E)
Time: 19:18:35
(UTC+00:00)

Hubble Space Telescope - Visible Passes

Search period start: 13 November 2019 00:00
Search period end: 23 November 2019 00:00
Orbit: 536 x 540 km, 28.5° (Epoch: 13 November)

Date Brightness Start Highest point End Pass type
(mag) Time Alt. Az. Time Alt. Az. Time Alt. Az.
13 Nov 2.7 12:40:26 10° S 12:43:08 17° SSE 12:45:51 10° ESE visible
13 Nov 2.8 14:20:01 10° WSW 14:21:56 27° WSW 14:21:56 27° WSW visible
13 Nov 2.8 22:54:06 22° SSE 22:54:06 22° SSE 22:55:54 10° SE visible
14 Nov 2.1 14:09:28 10° WSW 14:12:08 38° W 14:12:08 38° W visible
14 Nov 3.5 22:44:20 13° SSE 22:44:20 13° SSE 22:44:57 10° SSE visible
15 Nov 1.6 13:59:00 10° W 14:02:19 45° WNW 14:02:19 45° WNW visible
16 Nov 1.6 13:48:36 10° W 13:52:27 40° NNW 13:52:27 40° NNW visible
17 Nov 1.9 13:38:15 10° W 13:41:59 32° NNW 13:42:33 30° N visible
18 Nov 2.2 13:27:57 10° WNW 13:31:28 26° NNW 13:32:38 23° NNE visible
19 Nov 2.5 13:17:42 10° WNW 13:20:59 22° NNW 13:22:40 18° NNE visible
20 Nov 2.6 13:07:28 10° WNW 13:10:31 20° NNW 13:12:42 14° NNE visible
21 Nov 2.7 12:57:15 10° NW 13:00:05 18° N 13:02:43 11° NNE visible
22 Nov 2.8 12:47:01 10° NW 12:49:39 16° N 12:52:16 10° NNE visible
